[[{"header":{"parameterUnit":"m.s-1","parameterCategory":1,"la1":30.2991,"la2":30.254,"lo1":-89.0895,"lo2":-89.0444,"dy":0.0017,"dx":0.0017,"nx":28,"ny":28,"refTime":"2024-03-29T09:00:00:Z","depth":0,"parameterNumber":2,"parameterNumberName":"U-component_of_WINDS"},"data":[0,0,0,0,0,0,0,0,0,0,0,0,0,0,0,0,0,0,0,0,0,0,0,0,0,0,0,0,0,0,0,0,0,0,0,0,0,0,0,0,0,0,0,0,0,0,0,0,0,0,0,0,0,0,0,0,0,0,-0.1044,-0.1044,0,-0.1047,-0.1047,-0.1047,-0.1056,-0.1056,-0.1057,-0.1057,-0.106,-0.106,-0.106,0,0,0,0,0,0,0,0,0,0,0,0,0,-0.1045,-0.1045,-0.1044,-0.1044,-0.1044,-0.1047,-0.1047,-0.1047,-0.1056,-0.1056,-0.1057,-0.1057,-0.106,-0.106,-0.106,0,0,0,0,0,0,0,0,0,0,0,0,0,-0.1046,-0.1045,-0.1044,-0.1049,-0.1049,-0.1047,-0.1047,-0.1047,-0.1056,-0.1056,-0.1057,-0.1057,-0.106,-0.106,-0.106,-0.1053,0,0,-0.106,-0.106,0,0,0,0,0,0,0,0,-0.1046,-0.1046,-0.1048,-0.1048,-0.1049,-0.1052,-0.1049,-0.1049,-0.1056,-0.1053,-0.1057,-0.1057,-0.1057,-0.1057,-0.1057,-0.1053,-0.1054,-0.106,-0.106,-0.1059,-0.1059,0,0,0,0,0,0,0,-0.1046,-0.1046,-0.1045,-0.1048,-0.1048,-0.1051,-0.1051,-0.1049,-0.1054,-0.1054,-0.1054,-0.1055,-0.1057,-0.1057,-0.1057,-0.1054,-0.106,-0.106,-0.1059,-0.1059,-0.1045,-0.1045,0,0,0,0,0,0,-0.1045,-0.1046,-0.1045,-0.1045,-0.1048,-0.1051,-0.1051,-0.105,-0.1054,-0.1054,-0.1054,-0.1055,-0.1057,-0.1058,-0.1058,-0.105,-0.1059,-0.1059,-0.1059,-0.1045,-0.1045,-0.1045,0,0,0,0,0,0,-0.1045,-0.1045,-0.1045,-0.1046,-0.1046,-0.105,-0.1049,-0.105,-0.105,-0.1054,-0.1055,-0.1053,-0.1058,-0.1058,-0.1054,-0.105,-0.1059,-0.1059,-0.1046,-0.1045,-0.1045,-0.1035,0,0,0,0,0,0,-0.1045,-0.1045,-0.1042,-0.1046,-0.1046,-0.1041,-0.1049,-0.105,-0.105,-0.1051,-0.1054,-0.1054,-0.1058,-0.1055,-0.1054,-0.105,-0.1059,-0.1046,-0.1045,-0.1045,-0.1036,-0.1034,-0.1033,0,0,0,0,0,-0.1045,-0.104,-0.1042,-0.1042,-0.1043,-0.1041,-0.1041,-0.1046,-0.105,-0.1047,-0.105,-0.1054,-0.1051,-0.1054,-0.1054,-0.105,-0.1046,-0.1046,-0.1045,-0.1036,-0.1035,-0.1033,0,0,0,0,0,0,-0.1036,-0.104,-0.1043,-0.1038,-0.1039,-0.1043,-0.104,-0.1044,-0.1044,-0.1044,-0.105,-0.105,-0.1046,-0.1048,-0.1051,-0.1044,-0.1049,-0.1049,-0.1043,-0.1041,-0.104,-0.104,-0.1059,0,0,0,0,0,-0.1033,-0.1032,-0.1035,-0.1031,-0.1031,-0.1035,-0.1035,-0.1038,-0.1039,-0.104,-0.1042,-0.1043,-0.1043,-0.1042,-0.1042,-0.1036,-0.1037,-0.1033,-0.1032,-0.1031,-0.103,-0.1028,-0.1026,-0.1042,-0.1042,-0.1042,0,0,-0.1028,-0.103,-0.1028,-0.1029,-0.103,-0.1028,-0.1036,-0.1033,-0.1032,-0.104,-0.1037,-0.1038,-0.104,-0.1036,-0.1034,-0.1037,-0.1026,-0.103,-0.1029,-0.1029,-0.1027,-0.1025,-0.1024,-0.1042,-0.1042,-0.1042,0,0,-0.1017,-0.1018,-0.1015,-0.1016,-0.1017,-0.102,-0.1019,-0.1022,-0.1024,-0.1021,-0.1026,-0.1025,-0.1024,-0.1025,-0.1025,-0.1015,-0.1019,-0.1014,-0.1008,-0.1005,-0.1004,-0.1003,-0.0999,-0.0998,-0.1014,-0.1014,-0.1014,0,-0.101,-0.1008,-0.1012,-0.101,-0.101,-0.1016,-0.1013,-0.1014,-0.1015,-0.1015,-0.1018,-0.1017,-0.1018,-0.1015,-0.1012,-0.1012,-0.1011,-0.1014,-0.1004,-0.1003,-0.1002,-0.0999,-0.0997,-0.1013,-0.1013,-0.1013,-0.1013,0,-0.0999,-0.0997,-0.0994,-0.0996,-0.0995,-0.0993,-0.0997,-0.0996,-0.0999,-0.1002,-0.0999,-0.1001,-0.1001,-0.1,-0.1003,-0.0997,-0.0999,-0.1003,-0.1009,-0.1,-0.0997,-0.0996,-0.1012,-0.1013,-0.1013,-0.1013,0,0,-0.0983,-0.0987,-0.0985,-0.0986,-0.0989,-0.0988,-0.0985,-0.0985,-0.0985,-0.0985,-0.0984,-0.0982,-0.0986,-0.0986,-0.099,-0.0987,-0.0979,-0.0992,-0.0992,-0.099,-0.0973,-0.097,-0.0968,-0.0982,-0.0982,-0.0982,-0.0973,0,-0.0973,-0.0969,-0.0973,-0.0968,-0.0967,-0.0973,-0.097,-0.0972,-0.0974,-0.0973,-0.0976,-0.0975,-0.098,-0.098,-0.0978,-0.0981,-0.0976,-0.0981,-0.0981,-0.0981,-0.098,-0.0967,-0.0964,-0.0955,-0.0972,-0.0971,-0.0971,0,-0.0961,-0.0961,-0.0956,-0.0959,-0.0959,-0.0957,-0.0957,-0.0956,-0.0958,-0.096,-0.096,-0.0964,-0.0962,-0.0968,-0.0965,-0.0968,-0.0968,-0.0969,-0.0969,-0.097,-0.0976,-0.0967,-0.0953,-0.0951,-0.0969,-0.097,-0.097,0,-0.095,-0.0949,-0.0946,-0.0946,-0.095,-0.0948,-0.0949,-0.0951,-0.0951,-0.0952,-0.0952,-0.0952,-0.0952,-0.0952,-0.0956,-0.096,-0.0953,-0.0959,-0.0955,-0.0955,-0.0953,-0.0953,-0.0939,-0.0953,-0.0953,-0.0953,-0.0953,0,-0.0938,-0.0935,-0.0941,-0.0939,-0.0936,-0.0941,-0.0937,-0.0939,-0.0941,-0.0939,-0.0945,-0.0943,-0.0949,-0.0948,-0.0951,-0.0948,-0.0948,-0.095,-0.0951,-0.0949,-0.0949,-0.095,-0.095,-0.0952,-0.0952,-0.0953,-0.0953,0,-0.0926,-0.0929,-0.0927,-0.093,-0.0931,-0.0928,-0.0931,-0.093,-0.0932,-0.0931,-0.093,-0.0935,-0.0934,-0.0938,-0.0938,-0.094,-0.0936,-0.0938,-0.0936,-0.0936,-0.0932,-0.0933,-0.0918,-0.0916,-0.093,-0.093,-0.093,0,-0.0919,-0.0916,-0.0919,-0.0919,-0.092,-0.0919,-0.0919,-0.0924,-0.0923,-0.0925,-0.0924,-0.0923,-0.0924,-0.0922,-0.0925,-0.0926,-0.0928,-0.0922,-0.0928,-0.0927,-0.0928,-0.0928,-0.0928,-0.0921,-0.0921,-0.0921,-0.0921,0,-0.0906,-0.0908,-0.0907,-0.0908,-0.0908,-0.0908,-0.0909,-0.0908,-0.0913,-0.0913,-0.0912,-0.0912,-0.0912,-0.0912,-0.0913,-0.0915,-0.0919,-0.0919,-0.0918,-0.0917,-0.0916,-0.0917,-0.0933,-0.092,-0.092,-0.092,-0.092,-0.092,-0.0896,-0.0894,-0.0896,-0.0896,-0.0897,-0.0897,-0.0896,-0.0899,-0.0898,-0.0899,-0.0902,-0.0901,-0.0903,-0.0904,-0.0905,-0.0904,-0.0907,-0.0906,-0.0905,-0.0905,-0.0904,-0.0916,-0.0904,-0.0905,-0.0905,-0.0905,-0.0905,0,-0.0883,-0.0885,-0.0884,-0.0886,-0.0885,-0.0889,-0.089,-0.089,-0.0889,-0.089,-0.089,-0.089,-0.089,-0.0893,-0.0893,-0.0892,-0.0894,-0.0892,-0.0892,-0.0892,-0.0902,-0.0903,-0.089,-0.089,-0.089,-0.089,-0.089,-0.089,-0.0877,-0.0874,-0.0877,-0.0875,-0.0876,-0.0875,-0.0876,-0.0877,-0.0878,-0.0877,-0.0877,-0.0879,-0.0881,-0.0881,-0.0881,-0.0882,-0.0882,-0.088,-0.0881,-0.089,-0.0892,-0.0893,-0.0894,-0.088,-0.0879,-0.0872,-0.0872,-0.0872]},{"header":{"parameterUnit":"m.s-1","parameterCategory":1,"la1":30.2991,"la2":30.254,"lo1":-89.0895,"lo2":-89.0444,"dy":0.0017,"dx":0.0017,"nx":28,"ny":28,"refTime":"2024-03-29T09:00:00:Z","depth":0,"parameterNumber":3,"parameterNumberName":"V-component_of_WINDS"},"data":[0,0,0,0,0,0,0,0,0,0,0,0,0,0,0,0,0,0,0,0,0,0,0,0,0,0,0,0,0,0,0,0,0,0,0,0,0,0,0,0,0,0,0,0,0,0,0,0,0,0,0,0,0,0,0,0,0,0,4.3398,4.34,0,4.3573,4.3575,4.3577,4.3575,4.3573,4.357,4.3568,4.3744,4.3751,4.3758,0,0,0,0,0,0,0,0,0,0,0,0,0,4.3056,4.3062,4.3397,4.34,4.3402,4.3573,4.3575,4.3578,4.3575,4.3573,4.357,4.3567,4.3742,4.375,4.3758,0,0,0,0,0,0,0,0,0,0,0,0,0,4.3215,4.3064,4.3397,4.3421,4.3425,4.3573,4.3576,4.3579,4.3576,4.3572,4.3569,4.3566,4.3739,4.3749,4.3759,4.3893,0,0,4.3791,4.3795,0,0,0,0,0,0,0,0,4.3206,4.3227,4.3416,4.342,4.3425,4.3549,4.352,4.3684,4.3577,4.3519,4.3568,4.3564,4.3682,4.3696,4.3737,4.3901,4.3909,4.3792,4.3798,4.3802,4.3805,0,0,0,0,0,0,0,4.3195,4.322,4.3467,4.3418,4.3424,4.3422,4.3441,4.3551,4.3617,4.3523,4.3524,4.3545,4.3683,4.3727,4.3741,4.3911,4.3791,4.3801,4.3807,4.3811,4.4193,4.4196,0,0,0,0,0,0,4.3179,4.3211,4.3461,4.3472,4.3305,4.3431,4.3452,4.3512,4.3616,4.3629,4.3548,4.3544,4.3711,4.3729,4.3747,4.391,4.3802,4.3812,4.3818,4.4189,4.4194,4.4198,0,0,0,0,0,0,4.3172,4.3202,4.3454,4.3342,4.3374,4.3441,4.3508,4.3518,4.3561,4.3635,4.3646,4.358,4.3709,4.3733,4.3857,4.3916,4.3817,4.3826,4.4184,4.419,4.4196,4.4237,0,0,0,0,0,0,4.3162,4.3199,4.3252,4.3343,4.338,4.3562,4.3512,4.3524,4.358,4.3577,4.3668,4.368,4.3708,4.3841,4.3867,4.3929,4.3834,4.4179,4.4187,4.4194,4.4231,4.4244,4.4255,0,0,0,0,0,4.315,4.3256,4.3254,4.3285,4.3447,4.3566,4.3587,4.3618,4.3584,4.3637,4.3684,4.3677,4.3906,4.3854,4.3883,4.3948,4.4175,4.4185,4.4193,4.4225,4.4241,4.4254,0,0,0,0,0,0,4.3169,4.3268,4.3268,4.3406,4.3478,4.3565,4.3633,4.3634,4.3716,4.3709,4.3743,4.3764,4.3888,4.393,4.3872,4.4083,4.4036,4.4051,4.405,4.4066,4.4078,4.4065,4.3843,0,0,0,0,0,4.3189,4.3278,4.336,4.3474,4.351,4.3565,4.3618,4.3636,4.3711,4.3741,4.3797,4.3869,4.3956,4.4014,4.4098,4.4237,4.4256,4.4296,4.4308,4.4317,4.433,4.4405,4.4423,4.4227,4.4227,4.4227,0,0,4.3232,4.3297,4.3351,4.348,4.3537,4.3628,4.3591,4.3688,4.3755,4.3755,4.3876,4.392,4.4002,4.4133,4.4194,4.4172,4.4388,4.4329,4.4336,4.4343,4.4416,4.4435,4.4451,4.4233,4.4232,4.4231,0,0,4.3356,4.3415,4.3516,4.3575,4.3662,4.3698,4.3722,4.381,4.3839,4.3961,4.3963,4.4042,4.4193,4.4252,4.4301,4.4446,4.4443,4.4473,4.4536,4.4609,4.4624,4.4638,4.4689,4.4707,4.4485,4.4485,4.4485,0,4.3397,4.3535,4.3568,4.3666,4.3722,4.3727,4.3829,4.3884,4.3994,4.4032,4.4007,4.4196,4.4252,4.4397,4.4432,4.4472,4.45,4.4463,4.462,4.4634,4.4647,4.4696,4.4716,4.4488,4.4488,4.4488,4.4487,0,4.3582,4.3677,4.3748,4.3856,4.392,4.402,4.4066,4.4126,4.4138,4.4176,4.43,4.4367,4.4465,4.4501,4.4513,4.4647,4.4631,4.4612,4.4566,4.4668,4.4715,4.4734,4.4493,4.4492,4.4491,4.449,0,0,4.3723,4.3847,4.3873,4.3922,4.4019,4.4092,4.4191,4.4289,4.4339,4.4415,4.4498,4.4625,4.4609,4.4665,4.4684,4.4748,4.4858,4.4721,4.4723,4.4744,4.5009,4.5022,4.5044,4.4856,4.486,4.4863,4.5002,0,4.3857,4.4035,4.4067,4.4221,4.4309,4.4315,4.4401,4.4469,4.4507,4.4586,4.4627,4.4716,4.4688,4.4721,4.4785,4.4831,4.4911,4.4821,4.4933,4.4936,4.4912,4.5068,4.5083,4.5211,4.502,4.5023,4.5026,0,4.4038,4.4119,4.4283,4.4367,4.4405,4.4483,4.4574,4.465,4.4726,4.4749,4.4812,4.4823,4.4924,4.4874,4.5013,4.4951,4.4998,4.5028,4.5033,4.5045,4.4987,4.5084,4.5253,4.5272,4.5055,4.5053,4.505,0,4.4124,4.4274,4.4392,4.4433,4.4535,4.4589,4.4633,4.4706,4.4763,4.4842,4.4878,4.4968,4.5017,4.5085,4.512,4.508,4.5257,4.5209,4.5278,4.5277,4.5315,4.5312,4.5494,4.5345,4.5345,4.5345,4.5344,0,4.427,4.437,4.4432,4.4504,4.4615,4.465,4.4759,4.4802,4.4867,4.4946,4.4956,4.503,4.5072,4.5151,4.5179,4.529,4.5312,4.5332,4.5338,4.5332,4.5329,4.5363,4.5355,4.535,4.5349,4.5348,4.5347,0,4.4386,4.4431,4.4559,4.4645,4.4669,4.4747,4.482,4.4889,4.4926,4.5027,4.5052,4.5111,4.5205,4.5247,4.5362,4.5381,4.5508,4.5507,4.5482,4.5484,4.5551,4.5544,4.5761,4.5791,4.5622,4.5624,4.5625,0,4.4476,4.4553,4.4647,4.4702,4.4748,4.4836,4.4894,4.493,4.4989,4.5082,4.514,4.5235,4.5313,4.5463,4.5515,4.5603,4.5605,4.5675,4.5618,4.5609,4.5606,4.5601,4.5608,4.5685,4.5687,4.5688,4.5689,0,4.4632,4.4651,4.4734,4.4825,4.4894,4.4967,4.5039,4.5082,4.513,4.5196,4.5293,4.5353,4.5472,4.5566,4.5657,4.5701,4.5703,4.5706,4.5727,4.5721,4.5703,4.5713,4.551,4.5701,4.57,4.5699,4.5699,4.5698,4.4738,4.4806,4.4883,4.4976,4.5033,4.51,4.5169,4.5216,4.5298,4.5398,4.5414,4.5518,4.5591,4.5714,4.5762,4.5842,4.5825,4.5855,4.5862,4.5869,4.5873,4.569,4.5859,4.5859,4.5858,4.5858,4.5858,0,4.4894,4.4944,4.5028,4.5129,4.5201,4.5197,4.5276,4.5336,4.5428,4.5496,4.5573,4.5684,4.5775,4.5834,4.5925,4.5978,4.5981,4.6001,4.5997,4.6007,4.5884,4.5857,4.5997,4.5997,4.5997,4.5997,4.5997,4.5997,4.4984,4.5099,4.5127,4.5271,4.5319,4.5422,4.5467,4.5528,4.5583,4.5707,4.5783,4.5821,4.5886,4.5982,4.6064,4.6079,4.6112,4.6133,4.6147,4.603,4.6016,4.6002,4.5977,4.614,4.614,4.6264,4.6265,4.6266]}]]